Tracking 20092 objects as of 14-Dec-2019
HD Live streaming from Space Station
objects crossing your sky now

COSMOS 2251 DEB

Track COSMOS 2251 DEB now!
10-day predictions


NORAD ID: 34037
Int'l Code: 1993-036HY
Perigee: 760.0 km
Apogee: 848.5 km
Inclination: 74.1 °
Period: 100.8 minutes
Semi major axis: 7175 km
RCS: 0.0548 m2 (small)
Launch date: June 16, 1993
Source: Commonwealth of Independent States (former USSR) (CIS)
Launch site: PLESETSK MISSILE AND SPACE COMPLEX (PKMTR)

Note: This is SATELLITE DEBRIS
aabbcc
Your satellite tracking list
Your tracking list is empty




NASA's NSSDC Master Catalog

Two Line Element Set (TLE):
1 34037U 93036HY  19347.19266462  .00000196  00000-0  87004-4 0  9997
2 34037  74.0545  72.6892 0061658 301.4552  58.0578 14.28385750563992
Source of the keplerian elements: AFSPC